Flag for Niger Weather past 2 weeks in Niamey, Niger

Now
82 °F

Duststorm.


Feels Like: 80 °F
Forecast: 74 / 105 °F
Wind: 6 mph from Northeast

Location: Niamey-Aero

Current Time: Apr 18, 2015 at 4:27:14 AM

Latest Report: Apr 18, 2015 at 4:00 AM


Visibility: 1 mi

Pressure: 29.89 "Hg

Humidity: 7%

Dew point: 12 °F

Location of NiameyLocation

Historic Weather in Niamey — Graph

°F

Niamey temperature yesterday

Maximum temperature yesterday: 100 °F (at 4:00 PM)
Minimum temperature yesterday: 81 °F (at 4:00 AM)
Average temperature yesterday: 89 °F

Past Weeks' High & Low Weather Summary

 TemperatureHumidityPressure
High109 °F (Apr 9, 4:00 PM)36% (Apr 7, 5:00 AM)32.69 "Hg (Apr 7, 5:00 AM)
Low73 °F (Apr 15, 6:00 AM)3% (Apr 3, 12:00 PM)29.68 "Hg (Apr 5, 4:00 PM)
Average93 °F9%29.85 "Hg
* Reported Apr 3 3:00 AM — Apr 18 3:00 AM, Niamey, Weather by CustomWeather, © 2015

Note: Actual official high and low records may vary slightly from our data, if they occured in-between our weather recording intervals... More about our weather records

Advertising

Niamey weather history for previous 24 hours

 ConditionsComfort  
Time TempWeatherWind HumidityBarometerVisibility
3:00 AM
Sat, Apr 18
82 °FDuststorm.7 mph7%29.89 "Hg1 mi
2:00 AM84 °FDuststorm.7 mph6%29.92 "Hg1 mi
1:00 AM86 °FDuststorm.7 mph6%29.95 "Hg1 mi
12:00 AM88 °FDuststorm.8 mph6%29.95 "Hg2 mi
11:00 PM
Fri, Apr 17
88 °FDuststorm.9 mph5%29.95 "Hg2 mi
10:00 PM90 °FDuststorm.7 mph6%29.95 "Hg2 mi
9:00 PM91 °FDuststorm.7 mph5%29.92 "Hg1 mi
8:00 PM93 °FDuststorm.8 mph4%29.89 "Hg1 mi
7:00 PM97 °FDuststorm.10 mph4%29.86 "Hg1 mi
6:00 PM99 °FDuststorm.10 mph4%29.86 "Hg1 mi
5:00 PM99 °FDuststorm.10 mph4%29.86 "Hg1 mi
4:00 PM100 °FDuststorm.8 mph3%29.86 "Hg1 mi
3:00 PM99 °FDuststorm.10 mph4%29.89 "Hg1 mi
2:00 PM99 °FDuststorm.15 mph4%29.92 "Hg1 mi
1:00 PM97 °FLow level haze.16 mph4%29.95 "Hg2 mi
10:00 AM90 °FLow level haze.23 mph5%30.01 "Hg1 mi
9:00 AM86 °FLow level haze.21 mph6%29.98 "Hg2 mi
8:00 AM82 °FDuststorm.17 mph6%29.98 "Hg2 mi
7:00 AM81 °FDuststorm.12 mph7%29.95 "Hg2 mi
6:00 AM81 °FDuststorm.13 mph7%29.92 "Hg2 mi
5:00 AM81 °FDuststorm.12 mph7%29.89 "Hg2 mi
4:00 AM81 °FDuststorm.7 mph7%29.89 "Hg2 mi
Weather by CustomWeather, © 2015

See weather overviewHow to use our weather pages